GSAT0221 (PRN E15)

Last updated on Thu Jul 18 2024 00:03:12 GMT+0000 (Coordinated Universal Time)

1 43564U 18060A 24199.26910831 -.00000071 00000+0 00000+0 0 9999 2 43564 57.3052 0.6583 0001952 279.9733 80.0163 1.70476022 37237
UTC large
Height (km)
Speed (km/s)
/
Latitude / Longitude
Inclination (degrees)
Orbital Period (minutes)
Azimuth
Elevation
Range (km)
Doppler Factor

Next 0 passes for location: London (51.5072 / 0.1276)

Sorry there are no passes over London.